| time (UTC) | temp F | wind direction | speed knots | gust knots | rain 1hr in | rain 24hr in | rain mn in | humidity % | barometer mb |
| 20260504203546 | 67 | 210 | 0.9 | 0.0 | 0.00 | 0.00 | 0.00 | 40 | 1011.1 |
| 20260504200901 | 67 | 210 | 0.0 | 0.0 | 0.00 | 0.00 | 0.00 | 40 | 1011.0 |
| 20260504194426 | 67 | 210 | 0.0 | 0.0 | 0.00 | 0.00 | 0.00 | 40 | 1011.0 |
| 20260504191910 | 67 | 210 | 0.0 | 0.0 | 0.00 | 0.00 | 0.00 | 40 | 1011.0 |
| 20260504185250 | 74 | 220 | 0.0 | 0.0 | 0.00 | 0.00 | 0.00 | 30 | 1010.6 |
| 20260504182410 | 74 | 220 | 0.0 | 0.0 | 0.00 | 0.00 | 0.00 | 30 | 1010.6 |
| 20260504175736 | 79 | 220 | 0.9 | 0.0 | 0.00 | 0.00 | 0.00 | 26 | 1010.3 |
| 20260504173101 | 79 | 220 | 0.9 | 0.0 | 0.00 | 0.00 | 0.00 | 26 | 1010.3 |
| 20260504170210 | 80 | 220 | 0.9 | 0.0 | 0.00 | 0.00 | 0.00 | 24 | 1010.4 |
| 20260504130106 | 79 | 200 | 0.9 | 0.0 | 0.00 | 0.00 | 0.00 | 26 | 1012.1 |
| 20260504100535 | 74 | 230 | 0.9 | 0.0 | 0.00 | 0.00 | 0.00 | 27 | 1013.4 |
| 20260504080213 | 69 | 220 | 0.9 | 0.0 | 0.00 | 0.00 | 0.00 | 30 | 1013.7 |
| 20260504043423 | 51 | 140 | 0.0 | 0.0 | 0.00 | 0.00 | 0.00 | 65 | 1014.2 |
| 20260504035353 | 49 | 120 | 0.0 | 0.0 | 0.00 | 0.00 | 0.00 | 69 | 1014.1 |
| 20260504031323 | 49 | 150 | 0.0 | 0.0 | 0.00 | 0.00 | 0.00 | 69 | 1014.2 |
| 20260504023533 | 49 | 150 | 0.0 | 0.0 | 0.00 | 0.00 | 0.00 | 69 | 1014.2 |
| 20260504015528 | 49 | 140 | 0.0 | 0.0 | 0.00 | 0.00 | 0.00 | 64 | 1014.3 |
| 20260504011428 | 53 | 120 | 0.0 | 0.0 | 0.00 | 0.00 | 0.00 | 60 | 1014.2 |
| 20260504003253 | 53 | 120 | 0.0 | 0.0 | 0.00 | 0.00 | 0.00 | 60 | 1014.2 |
| 20260503235318 | 57 | 160 | 0.0 | 0.0 | 0.00 | 0.00 | 0.00 | 52 | 1014.2 |
| 20260503231113 | 59 | 170 | 0.0 | 0.0 | 0.00 | 0.00 | 0.00 | 46 | 1014.3 |
| 20260503222948 | 59 | 170 | 0.0 | 0.0 | 0.00 | 0.00 | 0.00 | 46 | 1014.3 |
| 20260503214843 | 63 | 160 | 0.9 | 0.0 | 0.00 | 0.00 | 0.00 | 40 | 1014.2 |
| 20260503210743 | 64 | 190 | 0.0 | 0.0 | 0.00 | 0.00 | 0.00 | 38 | 1014.1 |